Angleton, TX

3:05 AM CDT on August 22, 2019 (GMT -0500)
Brazoria County

Weather History for KLBX - June, 2019

Change the Weather History Date:

Tuesday, June 4, 2019

  Actual Average Record
Temperature  
Mean Temperature 81 °F -  
Max Temperature 91 °F 86 °F 93 °F (2018)
Min Temperature 72 °F 70 °F 64 °F (2013)
Cooling Degree Days 16    
Growing Degree Days 31 (Base 50)    
Moisture  
Dew Point 73 °F    
Average Humidity 83    
Maximum Humidity 97    
Minimum Humidity 59    
Precipitation  
Precipitation 0.23 in - - ()
Sea Level Pressure  
Sea Level Pressure 29.94 in    
Wind  
Wind Speed 5 mph (ESE)    
Max Wind Speed 18 mph    
Max Gust Speed 38 mph    
Visibility 8 miles    
Events Rain , Thunderstorm    
Averages and records for this station are not official NWS values.
T = Trace of Precipitation, MM = Missing Value Source: NWS Daily Summary

Daily Weather History Graph

Daily Weather History Graph

Search for Another Location

Airport or City:

Astronomy

Jun. 04, 2019 Rise Set
Actual Time 6:22 AM CDT 8:17 PM CDT
Civil Twilight 5:55 AM CDT 8:44 PM CDT
Nautical Twilight 5:23 AM CDT 9:17 PM CDT
Astronomical Twilight 4:49 AM CDT 9:51 PM CDT
Moon 7:31 AM CDT (6/4) 9:47 PM CDT (6/4)
Length of Visible Light 14h 48m
Length of Day
13h 55m
New Moon, 2% of the Moon is Illuminated
Jun 4
New Moon
Jun 10
First Quarter
Jun 17
Full
Jun 25
Last Quarter
Jul 2
New

Hourly Weather History & Observations

Time (CDT) Temp. Heat Index Dew Point Humidity Pressure Visibility Wind Dir Wind Speed Gust Speed Precip Events Conditions
12:53 AM 78.1 °F - 73.9 °F 87% 29.97 in 10.0 mi Calm Calm - N/A   Clear
1:53 AM 75.0 °F - 73.0 °F 94% 29.98 in 10.0 mi Calm Calm - N/A   Clear
2:53 AM 73.9 °F - 72.0 °F 93% 29.96 in 10.0 mi Calm Calm - N/A   Clear
3:53 AM 73.0 °F - 71.1 °F 93% 29.94 in 9.0 mi Calm Calm - N/A   Clear
4:53 AM 73.0 °F - 71.1 °F 93% 29.94 in 9.0 mi Calm Calm - N/A   Clear
5:53 AM 72.0 °F - 70.0 °F 93% 29.94 in 9.0 mi Calm Calm - N/A   Clear
6:53 AM 72.0 °F - 71.1 °F 97% 29.94 in 6.0 mi Calm Calm - N/A   Partly Cloudy
7:13 AM 73.9 °F - 72.0 °F 93% 29.94 in 8.0 mi North 3.5 mph - N/A   Mostly Cloudy
7:29 AM 75.0 °F - 73.0 °F 94% 29.95 in 9.0 mi North 4.6 mph - N/A   Scattered Clouds
7:53 AM 78.1 °F - 73.9 °F 87% 29.95 in 10.0 mi Calm Calm - N/A   Clear
8:53 AM 82.9 °F 90.2 °F 75.0 °F 77% 29.97 in 10.0 mi SE 4.6 mph - N/A   Clear
9:53 AM 84.9 °F 91.4 °F 73.0 °F 67% 29.98 in 10.0 mi ESE 6.9 mph - N/A   Partly Cloudy
10:53 AM 89.1 °F 97.0 °F 73.0 °F 59% 29.97 in 10.0 mi East 8.1 mph 17.3 mph N/A   Partly Cloudy
11:17 AM 88.0 °F 95.6 °F 73.0 °F 61% 29.97 in 2.0 mi SE 12.7 mph 18.4 mph N/A   Haze
11:26 AM 87.1 °F 94.5 °F 73.0 °F 63% 29.97 in 10.0 mi SSE 10.4 mph - N/A   Partly Cloudy
11:53 AM 89.1 °F 97.0 °F 73.0 °F 59% 29.96 in 10.0 mi SE 11.5 mph 18.4 mph N/A   Partly Cloudy
12:53 PM 90.0 °F 99.0 °F 73.9 °F 59% 29.96 in 10.0 mi ESE 13.8 mph 19.6 mph N/A   Scattered Clouds
1:53 PM 89.1 °F 98.0 °F 73.9 °F 61% 29.95 in 10.0 mi ESE 13.8 mph 18.4 mph N/A   Mostly Cloudy
2:32 PM 80.1 °F 84.2 °F 73.0 °F 79% 29.96 in 9.0 mi South 17.3 mph 32.2 mph 0.00 in Rain , Thunderstorm Light Rain
2:53 PM 78.1 °F - 73.9 °F 87% 29.96 in 10.0 mi SSE 9.2 mph - 0.00 in Rain , Thunderstorm Light Rain
3:04 PM 79.0 °F - 73.9 °F 84% 29.96 in 6.0 mi SE 9.2 mph - 0.02 in Rain Rain
3:53 PM 78.1 °F - 73.0 °F 84% 29.94 in 10.0 mi East 3.5 mph - 0.07 in Rain Light Rain
4:53 PM 79.0 °F - 75.0 °F 88% 29.91 in 10.0 mi ESE 6.9 mph - 0.01 in Rain Light Rain
5:53 PM 75.9 °F - 72.0 °F 87% 29.93 in 2.0 mi SSE 18.4 mph 38.0 mph 0.05 in Rain Heavy Rain
6:09 PM 73.9 °F - 71.1 °F 91% 29.92 in 3.0 mi SE 18.4 mph 27.6 mph 0.03 in Rain Rain
6:17 PM 73.9 °F - 71.1 °F 91% 29.91 in 2.5 mi SE 11.5 mph 21.9 mph 0.05 in Rain Rain
6:25 PM 73.9 °F - 71.1 °F 91% 29.91 in 4.0 mi SE 11.5 mph - 0.07 in Rain Rain
6:53 PM 73.9 °F - 71.1 °F 91% 29.89 in 10.0 mi ESE 5.8 mph - 0.09 in Rain Light Rain
7:53 PM 75.0 °F - 72.0 °F 90% 29.88 in 10.0 mi ESE 3.5 mph - 0.01 in   Clear
8:53 PM 75.9 °F - 73.0 °F 91% 29.90 in 10.0 mi East 3.5 mph - N/A   Scattered Clouds
9:53 PM 75.9 °F - 73.0 °F 91% 29.91 in 10.0 mi ESE 5.8 mph - N/A   Scattered Clouds
10:53 PM 77.0 °F - 73.9 °F 90% 29.92 in 10.0 mi East 4.6 mph - 0.00 in   Mostly Cloudy
11:53 PM 78.1 °F - 73.9 °F 87% 29.90 in 10.0 mi East 5.8 mph - N/A   Clear